This is the latest recevied weather packets stored in our database for station/object PA3DZX-13. If no packets are shown the sender has not sent any weather packets the latest 10 day(s).
| Time | Temp. | Humidity | Pressure | Rain* | Wind** | Luminosity | Snow |
|---|---|---|---|---|---|---|---|
| 1788336510 | 16.67° C | 73% | 1019.7 hPa | 0 mm | - | - | - |
| 1788335609 | 15° C | 80% | 1019.7 hPa | 0 mm | - | - | - |
| 1788334708 | 15° C | 82% | 1019.7 hPa | 0 mm | - | - | - |
| 1788333807 | 13.89° C | 84% | 1019.6 hPa | 0 mm | - | - | - |
| 1788332907 | 13.89° C | 88% | 1019.5 hPa | 0 mm | - | - | - |
| 1788332006 | 13.89° C | 88% | 1019.5 hPa | 0 mm | - | - | - |
| 1788331105 | 12.78° C | 89% | 1019.5 hPa | 0 mm | - | - | - |
| 1788330204 | 12.78° C | 90% | 1019.6 hPa | 0 mm | - | - | - |
| 1788329304 | 11.67° C | 92% | 1019.6 hPa | 0 mm | - | - | - |
| 1788328403 | 11.67° C | 93% | 1019.4 hPa | 0 mm | - | - | - |
| 1788327503 | 10.56° C | 93% | 1019.4 hPa | 0 mm | - | - | - |
| 1788326602 | 10.56° C | 91% | 1019.4 hPa | 0 mm | - | - | - |
| 1788325702 | 10.56° C | 94% | 1019.4 hPa | 0 mm | - | - | - |
| 1788324801 | 10.56° C | 93% | 1019.4 hPa | 0 mm | - | - | - |
| 1788323901 | 10.56° C | 94% | 1019.2 hPa | 0 mm | - | - | - |
| 1788323000 | 10.56° C | 94% | 1019.3 hPa | 0 mm | - | - | - |
| 1788322100 | 10.56° C | 95% | 1019.4 hPa | 0 mm | - | - | - |
| 1788321199 | 10.56° C | 96% | 1019.6 hPa | 0 mm | - | - | - |
| 1788320298 | 10.56° C | 95% | 1019.6 hPa | 0 mm | - | - | - |
| 1788319398 | 10.56° C | 95% | 1019.7 hPa | 0 mm | - | - | - |
| 1788318498 | 10.56° C | 96% | 1019.7 hPa | 0 mm | - | - | - |
| 1788317597 | 10.56° C | 95% | 1019.8 hPa | 0 mm | - | - | - |
| 1788316696 | 10° C | 95% | 1019.9 hPa | 0 mm | - | - | - |
| 1788315795 | 10° C | 95% | 1019.9 hPa | 0 mm | - | - | - |
| 1788314894 | 10.56° C | 96% | 1019.9 hPa | 0 mm | - | - | - |
* Rain latest hour (hover to see other rain measurements)
** Current wind speed in m/s (hover to see current wind gust speed)